Tracking 28052 objects as of 21-Sep-2023
HD Live streaming from Space Station
objects crossing your sky now

SL-8 DEB

Track SL-8 DEB now!
10-day predictions


NORAD ID: 21959
Int'l Code: 1991-009CH
Perigee: 1,501.8 km
Apogee: 1,708.2 km
Inclination: 74.0 °
Period: 118.2 minutes
Semi major axis: 7976 km
RCS: 0.0331 m2 (small)
Launch date: February 12, 1991
Source: Commonwealth of Independent States (former USSR) (CIS)
Launch site: PLESETSK MISSILE AND SPACE COMPLEX (PKMTR)

Note: This is SATELLITE DEBRIS
Your satellite tracking list
Your tracking list is empty




NASA's NSSDC Master Catalog

Two Line Element Set (TLE):
1 21959U 91009CH  23263.68565469 -.00000008  00000-0  56916-4 0  9990
2 21959  73.9726 350.7806 0129396  63.1664  58.6332 12.18769910446507
Source of the keplerian elements: AFSPC